| time (UTC) | temp F | wind direction | speed knots | gust knots | rain 1hr in | rain 24hr in | rain mn in | humidity % | barometer mb |
| 20260504081650 | 42 | 267 | 0.0 | 0.0 | 0.00 | 0.00 | 0.00 | 83 | 1015.9 |
| 20260504081146 | 41 | 291 | 0.0 | 0.0 | 0.00 | 0.00 | 0.00 | 85 | 1015.8 |
| 20260504080643 | 41 | 312 | 0.0 | 0.0 | 0.00 | 0.00 | 0.00 | 84 | 1015.6 |
| 20260504080139 | 41 | 312 | 0.0 | 0.0 | 0.00 | 0.00 | 0.00 | 85 | 1015.7 |
| 20260504070108 | 40 | 257 | 0.0 | 0.0 | 0.00 | 0.00 | 0.00 | 85 | 1016.2 |
| 20260504050456 | 39 | 269 | 0.0 | 0.0 | 0.00 | 0.00 | 0.00 | 80 | 1016.6 |
| 20260504045953 | 39 | 270 | 0.0 | 0.9 | 0.00 | 0.00 | 0.00 | 81 | 1016.7 |
| 20260504045449 | 39 | 253 | 0.9 | 0.9 | 0.00 | 0.00 | 0.00 | 80 | 1016.8 |
| 20260504044945 | 39 | 265 | 0.0 | 0.0 | 0.00 | 0.00 | 0.00 | 77 | 1016.8 |
| 20260504044443 | 39 | 265 | 0.0 | 0.0 | 0.00 | 0.00 | 0.00 | 77 | 1016.6 |
| 20260504043940 | 39 | 276 | 0.0 | 0.0 | 0.00 | 0.00 | 0.00 | 77 | 1016.4 |
| 20260504043437 | 39 | 266 | 0.0 | 0.0 | 0.00 | 0.00 | 0.00 | 79 | 1016.5 |
| 20260504042934 | 39 | 268 | 0.0 | 0.0 | 0.00 | 0.00 | 0.00 | 80 | 1016.6 |
| 20260504042431 | 38 | 267 | 0.0 | 0.0 | 0.00 | 0.00 | 0.00 | 81 | 1016.6 |
| 20260504041927 | 39 | 255 | 0.0 | 0.0 | 0.00 | 0.00 | 0.00 | 78 | 1016.5 |
| 20260504041424 | 39 | 267 | 0.0 | 0.0 | 0.00 | 0.00 | 0.00 | 76 | 1016.7 |
| 20260504040920 | 39 | 311 | 0.0 | 0.0 | 0.00 | 0.00 | 0.00 | 79 | 1016.6 |
| 20260504040418 | 39 | 311 | 0.0 | 0.0 | 0.00 | 0.00 | 0.00 | 79 | 1016.7 |
| 20260504035913 | 40 | 293 | 0.0 | 0.0 | 0.00 | 0.00 | 0.00 | 79 | 1016.6 |
| 20260504035411 | 40 | 287 | 0.0 | 0.0 | 0.00 | 0.00 | 0.00 | 79 | 1016.8 |
| 20260504034907 | 40 | 287 | 0.0 | 0.0 | 0.00 | 0.00 | 0.00 | 78 | 1016.6 |
| 20260504034405 | 41 | 287 | 0.0 | 0.0 | 0.00 | 0.00 | 0.00 | 76 | 1016.6 |
| 20260504033902 | 42 | 287 | 0.0 | 0.0 | 0.00 | 0.00 | 0.00 | 75 | 1016.6 |
| 20260504033400 | 41 | 287 | 0.0 | 0.0 | 0.00 | 0.00 | 0.00 | 72 | 1016.5 |
| 20260504032856 | 42 | 291 | 0.0 | 0.0 | 0.00 | 0.00 | 0.00 | 73 | 1016.6 |
| 20260504032353 | 41 | 286 | 0.0 | 0.0 | 0.00 | 0.00 | 0.00 | 75 | 1016.7 |
| 20260504031850 | 40 | 265 | 0.0 | 0.0 | 0.00 | 0.00 | 0.00 | 76 | 1016.4 |
| 20260504031347 | 41 | 312 | 0.0 | 0.0 | 0.00 | 0.00 | 0.00 | 76 | 1016.6 |
| 20260504030843 | 41 | 313 | 0.0 | 0.0 | 0.00 | 0.00 | 0.00 | 75 | 1016.5 |
| 20260504030341 | 41 | 313 | 0.0 | 0.0 | 0.00 | 0.00 | 0.00 | 72 | 1016.6 |
| 20260504025837 | 41 | 313 | 0.0 | 0.0 | 0.00 | 0.00 | 0.00 | 72 | 1016.4 |
| 20260504025334 | 41 | 303 | 0.0 | 0.0 | 0.00 | 0.00 | 0.00 | 73 | 1016.5 |
| 20260504024830 | 42 | 269 | 0.0 | 0.0 | 0.00 | 0.00 | 0.00 | 72 | 1016.5 |
| 20260504024327 | 42 | 271 | 0.0 | 0.0 | 0.00 | 0.00 | 0.00 | 69 | 1016.5 |
| 20260504023824 | 42 | 310 | 0.0 | 0.0 | 0.00 | 0.00 | 0.00 | 69 | 1016.6 |
| 20260504023321 | 42 | 310 | 0.0 | 0.0 | 0.00 | 0.00 | 0.00 | 69 | 1016.8 |
| 20260504022816 | 42 | 310 | 0.0 | 0.0 | 0.00 | 0.00 | 0.00 | 69 | 1016.6 |
| 20260504022313 | 43 | 310 | 0.0 | 0.0 | 0.00 | 0.00 | 0.00 | 69 | 1016.5 |
| 20260504021809 | 43 | 310 | 0.0 | 0.0 | 0.00 | 0.00 | 0.00 | 70 | 1016.7 |
| 20260504021308 | 44 | 340 | 0.0 | 0.0 | 0.00 | 0.00 | 0.00 | 68 | 1016.6 |
| 20260504020804 | 43 | 281 | 0.9 | 0.9 | 0.00 | 0.00 | 0.00 | 64 | 1016.7 |
| 20260504020301 | 43 | 254 | 0.0 | 0.0 | 0.00 | 0.00 | 0.00 | 71 | 1016.6 |
| 20260504015757 | 43 | 283 | 0.0 | 0.0 | 0.00 | 0.00 | 0.00 | 67 | 1016.6 |
| 20260504015253 | 43 | 267 | 0.0 | 0.0 | 0.00 | 0.00 | 0.00 | 70 | 1016.5 |
| 20260504014749 | 44 | 319 | 0.0 | 0.0 | 0.00 | 0.00 | 0.00 | 70 | 1016.2 |
| 20260504014246 | 44 | 274 | 0.0 | 0.0 | 0.00 | 0.00 | 0.00 | 64 | 1016.3 |
| 20260504013744 | 44 | 263 | 0.0 | 0.0 | 0.00 | 0.00 | 0.00 | 63 | 1016.2 |
| 20260504013241 | 43 | 254 | 0.0 | 0.0 | 0.00 | 0.00 | 0.00 | 67 | 1016.2 |
| 20260504012737 | 45 | 258 | 0.0 | 0.0 | 0.00 | 0.00 | 0.00 | 66 | 1016.1 |
| 20260504012235 | 47 | 345 | 0.0 | 1.7 | 0.00 | 0.00 | 0.00 | 59 | 1015.9 |
| 20260504011732 | 46 | 292 | 0.9 | 0.9 | 0.00 | 0.00 | 0.00 | 53 | 1016.1 |
| 20260504011229 | 46 | 261 | 0.0 | 0.0 | 0.00 | 0.00 | 0.00 | 64 | 1015.9 |
| 20260504010725 | 47 | 1 | 0.0 | 0.9 | 0.00 | 0.00 | 0.00 | 62 | 1016.0 |
| 20260504010220 | 48 | 281 | 0.9 | 0.9 | 0.00 | 0.00 | 0.00 | 56 | 1015.9 |
| 20260504005717 | 49 | 337 | 2.6 | 2.6 | 0.00 | 0.00 | 0.00 | 53 | 1015.9 |
| 20260504005214 | 49 | 281 | 0.0 | 0.9 | 0.00 | 0.00 | 0.00 | 46 | 1015.9 |
| 20260504004712 | 50 | 279 | 0.0 | 0.0 | 0.00 | 0.00 | 0.00 | 47 | 1015.9 |
| 20260504004209 | 49 | 278 | 0.9 | 1.7 | 0.00 | 0.00 | 0.00 | 48 | 1015.9 |
| 20260504003706 | 51 | 309 | 1.7 | 2.6 | 0.00 | 0.00 | 0.00 | 43 | 1015.8 |
| 20260504003202 | 51 | 281 | 0.0 | 0.9 | 0.00 | 0.00 | 0.00 | 43 | 1015.7 |
| 20260504002659 | 53 | 258 | 0.9 | 1.7 | 0.00 | 0.00 | 0.00 | 42 | 1015.8 |
| 20260504002156 | 54 | 294 | 0.0 | 1.7 | 0.00 | 0.00 | 0.00 | 37 | 1015.8 |
| 20260504001654 | 55 | 308 | 0.9 | 1.7 | 0.00 | 0.00 | 0.00 | 37 | 1015.8 |
| 20260504001150 | 55 | 313 | 1.7 | 1.7 | 0.00 | 0.00 | 0.00 | 36 | 1015.6 |
| 20260504000647 | 55 | 328 | 0.9 | 6.1 | 0.00 | 0.00 | 0.00 | 36 | 1015.8 |
| 20260504000145 | 55 | 293 | 1.7 | 1.7 | 0.00 | 0.00 | 0.00 | 36 | 1015.7 |
| 20260503235643 | 56 | 296 | 1.7 | 5.2 | 0.00 | 0.00 | 0.00 | 37 | 1015.8 |
| 20260503235139 | 56 | 291 | 1.7 | 3.5 | 0.00 | 0.00 | 0.00 | 37 | 1015.7 |
| 20260503234637 | 56 | 312 | 2.6 | 7.0 | 0.00 | 0.00 | 0.00 | 34 | 1015.8 |
| 20260503234135 | 57 | 303 | 5.2 | 5.2 | 0.00 | 0.00 | 0.00 | 34 | 1015.6 |
| 20260503233632 | 57 | 283 | 2.6 | 5.2 | 0.00 | 0.00 | 0.00 | 32 | 1015.6 |
| 20260503233127 | 58 | 300 | 3.5 | 6.1 | 0.00 | 0.00 | 0.00 | 33 | 1015.6 |
| 20260503232625 | 58 | 286 | 3.5 | 3.5 | 0.00 | 0.00 | 0.00 | 33 | 1015.7 |
| 20260503232122 | 58 | 285 | 2.6 | 6.1 | 0.00 | 0.00 | 0.00 | 34 | 1015.7 |
| 20260503231620 | 59 | 286 | 1.7 | 5.2 | 0.00 | 0.00 | 0.00 | 33 | 1015.6 |
| 20260503231116 | 59 | 313 | 5.2 | 6.1 | 0.00 | 0.00 | 0.00 | 31 | 1015.6 |
| 20260503230613 | 60 | 322 | 3.5 | 5.2 | 0.00 | 0.00 | 0.00 | 32 | 1015.6 |
| 20260503230110 | 60 | 281 | 2.6 | 5.2 | 0.00 | 0.00 | 0.00 | 31 | 1015.3 |
| 20260503225608 | 60 | 325 | 1.7 | 2.6 | 0.00 | 0.00 | 0.00 | 31 | 1015.5 |
| 20260503225107 | 60 | 301 | 2.6 | 3.5 | 0.00 | 0.00 | 0.00 | 31 | 1015.5 |
| 20260503224605 | 60 | 263 | 3.5 | 5.2 | 0.00 | 0.00 | 0.00 | 32 | 1015.6 |
| 20260503224103 | 60 | 267 | 4.3 | 7.0 | 0.00 | 0.00 | 0.00 | 31 | 1015.7 |
| 20260503223601 | 60 | 294 | 2.6 | 6.1 | 0.00 | 0.00 | 0.00 | 30 | 1015.6 |
| 20260503223056 | 60 | 267 | 4.3 | 6.1 | 0.00 | 0.00 | 0.00 | 32 | 1015.5 |
| 20260503222554 | 61 | 309 | 2.6 | 5.2 | 0.00 | 0.00 | 0.00 | 31 | 1015.6 |
| 20260503222052 | 60 | 264 | 1.7 | 5.2 | 0.00 | 0.00 | 0.00 | 31 | 1015.5 |
| 20260503221550 | 61 | 299 | 2.6 | 3.5 | 0.00 | 0.00 | 0.00 | 31 | 1015.6 |
| 20260503221047 | 61 | 336 | 1.7 | 2.6 | 0.00 | 0.00 | 0.00 | 34 | 1015.5 |
| 20260503220543 | 61 | 295 | 3.5 | 7.0 | 0.00 | 0.00 | 0.00 | 34 | 1015.6 |
| 20260503220040 | 61 | 299 | 2.6 | 3.5 | 0.00 | 0.00 | 0.00 | 32 | 1015.6 |
| 20260503215537 | 61 | 343 | 3.5 | 6.1 | 0.00 | 0.00 | 0.00 | 33 | 1015.6 |
| 20260503215034 | 61 | 294 | 3.5 | 5.2 | 0.00 | 0.00 | 0.00 | 31 | 1015.8 |
| 20260503214533 | 61 | 329 | 0.0 | 3.5 | 0.00 | 0.00 | 0.00 | 31 | 1015.7 |
| 20260503214029 | 60 | 282 | 1.7 | 7.0 | 0.00 | 0.00 | 0.00 | 33 | 1015.8 |
| 20260503213527 | 60 | 190 | 0.9 | 7.0 | 0.00 | 0.00 | 0.00 | 30 | 1015.7 |
| 20260503213024 | 60 | 269 | 3.5 | 7.8 | 0.00 | 0.00 | 0.00 | 32 | 1015.8 |
| 20260503212521 | 61 | 299 | 3.5 | 6.1 | 0.00 | 0.00 | 0.00 | 32 | 1015.8 |
| 20260503212018 | 61 | 276 | 3.5 | 9.6 | 0.00 | 0.00 | 0.00 | 34 | 1015.8 |
| 20260503211515 | 62 | 333 | 0.9 | 5.2 | 0.00 | 0.00 | 0.00 | 36 | 1015.7 |
| 20260503211011 | 61 | 239 | 0.0 | 2.6 | 0.00 | 0.00 | 0.00 | 29 | 1015.5 |
| 20260503210508 | 60 | 254 | 0.9 | 7.0 | 0.00 | 0.00 | 0.00 | 37 | 1015.7 |
| 20260503210003 | 60 | 288 | 4.3 | 6.1 | 0.00 | 0.00 | 0.00 | 34 | 1015.8 |
| 20260503205500 | 61 | 303 | 2.6 | 6.1 | 0.00 | 0.00 | 0.00 | 34 | 1015.8 |
| 20260503204956 | 60 | 239 | 3.5 | 7.0 | 0.00 | 0.00 | 0.00 | 31 | 1015.8 |
| 20260503204453 | 61 | 313 | 4.3 | 6.1 | 0.00 | 0.00 | 0.00 | 31 | 1015.9 |
| 20260503203950 | 61 | 343 | 4.3 | 7.8 | 0.00 | 0.00 | 0.00 | 32 | 1015.8 |
| 20260503203448 | 61 | 310 | 3.5 | 7.8 | 0.00 | 0.00 | 0.00 | 35 | 1015.9 |
| 20260503202944 | 61 | 356 | 2.6 | 3.5 | 0.00 | 0.00 | 0.00 | 32 | 1016.1 |
| 20260503202443 | 60 | 336 | 4.3 | 6.1 | 0.00 | 0.00 | 0.00 | 31 | 1016.1 |
| 20260503201941 | 60 | 283 | 1.7 | 5.2 | 0.00 | 0.00 | 0.00 | 37 | 1016.2 |
| 20260503201438 | 59 | 288 | 1.7 | 2.6 | 0.00 | 0.00 | 0.00 | 34 | 1016.4 |
| 20260503200935 | 61 | 263 | 4.3 | 5.2 | 0.00 | 0.00 | 0.00 | 34 | 1016.1 |
| 20260503200431 | 61 | 280 | 3.5 | 7.8 | 0.00 | 0.00 | 0.00 | 32 | 1016.3 |
| 20260503195928 | 60 | 247 | 2.6 | 7.0 | 0.00 | 0.00 | 0.00 | 33 | 1016.3 |
| 20260503195426 | 60 | 277 | 7.8 | 12.2 | 0.00 | 0.00 | 0.00 | 37 | 1016.5 |
| 20260503194922 | 60 | 272 | 1.7 | 8.7 | 0.00 | 0.00 | 0.00 | 33 | 1016.4 |
| 20260503194419 | 60 | 176 | 1.7 | 6.1 | 0.00 | 0.00 | 0.00 | 33 | 1016.6 |
| 20260503193914 | 60 | 299 | 3.5 | 6.1 | 0.00 | 0.00 | 0.00 | 35 | 1016.7 |
| 20260503193410 | 60 | 259 | 2.6 | 6.1 | 0.00 | 0.00 | 0.00 | 33 | 1016.7 |
| 20260503192906 | 60 | 215 | 3.5 | 12.2 | 0.00 | 0.00 | 0.00 | 35 | 1016.6 |
| 20260503192401 | 60 | 357 | 4.3 | 12.2 | 0.00 | 0.00 | 0.00 | 35 | 1016.7 |
| 20260503191858 | 59 | 281 | 0.9 | 3.5 | 0.00 | 0.00 | 0.00 | 35 | 1016.7 |
| 20260503191355 | 60 | 277 | 0.0 | 2.6 | 0.00 | 0.00 | 0.00 | 38 | 1017.2 |
| 20260503190852 | 59 | 206 | 5.2 | 7.0 | 0.00 | 0.00 | 0.00 | 33 | 1017.0 |
| 20260503190349 | 58 | 315 | 4.3 | 8.7 | 0.00 | 0.00 | 0.00 | 33 | 1017.2 |
| 20260503185846 | 59 | 329 | 4.3 | 6.1 | 0.00 | 0.00 | 0.00 | 39 | 1017.3 |
| 20260503185342 | 58 | 265 | 5.2 | 7.8 | 0.00 | 0.00 | 0.00 | 39 | 1017.2 |
| 20260503184837 | 58 | 346 | 6.1 | 11.3 | 0.00 | 0.00 | 0.00 | 37 | 1017.3 |
| 20260503184333 | 59 | 280 | 1.7 | 6.1 | 0.00 | 0.00 | 0.00 | 40 | 1017.3 |
| 20260503183829 | 59 | 287 | 5.2 | 6.1 | 0.00 | 0.00 | 0.00 | 38 | 1017.3 |
| 20260503183326 | 58 | 305 | 5.2 | 9.6 | 0.00 | 0.00 | 0.00 | 39 | 1017.3 |
| 20260503182824 | 58 | 340 | 7.8 | 8.7 | 0.00 | 0.00 | 0.00 | 36 | 1017.5 |
| 20260503182323 | 58 | 333 | 6.1 | 8.7 | 0.00 | 0.00 | 0.00 | 33 | 1017.6 |
| 20260503181820 | 58 | 273 | 3.5 | 5.2 | 0.00 | 0.00 | 0.00 | 37 | 1017.4 |
| 20260503181317 | 58 | 315 | 1.7 | 5.2 | 0.00 | 0.00 | 0.00 | 38 | 1017.6 |
| 20260503180813 | 56 | 355 | 7.0 | 9.6 | 0.00 | 0.00 | 0.00 | 37 | 1017.7 |
| 20260503180311 | 58 | 8 | 2.6 | 2.6 | 0.00 | 0.00 | 0.00 | 37 | 1017.6 |
| 20260503175807 | 58 | 23 | 5.2 | 8.7 | 0.00 | 0.00 | 0.00 | 34 | 1017.6 |
| 20260503175305 | 56 | 334 | 7.0 | 13.0 | 0.00 | 0.00 | 0.00 | 38 | 1017.9 |
| 20260503174800 | 56 | 338 | 5.2 | 7.0 | 0.00 | 0.00 | 0.00 | 40 | 1017.6 |
| 20260503174259 | 56 | 351 | 11.3 | 13.0 | 0.00 | 0.00 | 0.00 | 35 | 1017.8 |
| 20260503173754 | 55 | 276 | 7.8 | 8.7 | 0.00 | 0.00 | 0.00 | 38 | 1017.5 |
| 20260503173250 | 57 | 234 | 2.6 | 6.1 | 0.00 | 0.00 | 0.00 | 40 | 1017.7 |
| 20260503172747 | 56 | 206 | 1.7 | 7.0 | 0.00 | 0.00 | 0.00 | 35 | 1018.1 |
| 20260503172244 | 58 | 324 | 9.6 | 14.8 | 0.00 | 0.00 | 0.00 | 35 | 1018.0 |
| 20260503171741 | 57 | 295 | 2.6 | 5.2 | 0.00 | 0.00 | 0.00 | 38 | 1017.9 |
| 20260503171238 | 57 | 342 | 7.0 | 9.6 | 0.00 | 0.00 | 0.00 | 38 | 1018.0 |
| 20260503170735 | 57 | 344 | 1.7 | 3.5 | 0.00 | 0.00 | 0.00 | 41 | 1018.2 |
| 20260503170232 | 55 | 300 | 1.7 | 5.2 | 0.00 | 0.00 | 0.00 | 36 | 1018.0 |
| 20260503160153 | 53 | 338 | 4.3 | 7.8 | 0.00 | 0.00 | 0.00 | 45 | 1018.8 |
| 20260503150623 | 52 | 337 | 5.2 | 7.0 | 0.00 | 0.00 | 0.00 | 44 | 1019.4 |
| 20260503150120 | 49 | 292 | 5.2 | 11.3 | 0.00 | 0.00 | 0.00 | 46 | 1019.6 |
| 20260503131008 | 47 | 205 | 3.5 | 7.0 | 0.00 | 0.00 | 0.00 | 54 | 1019.4 |
| 20260503130505 | 47 | 327 | 5.2 | 7.0 | 0.00 | 0.00 | 0.00 | 58 | 1019.6 |
| 20260503110401 | 38 | 282 | 0.9 | 2.6 | 0.00 | 0.00 | 0.00 | 77 | 1018.9 |